Time_in_sec,Mx,My,Mz
1314273013.79360414,-0.30965739,0.47694823,-0.82738048
1314273013.85461092,-0.30920219,0.48095727,-0.82605702
1314273013.90461087,-0.30748850,0.48031813,-0.82688361
1314273013.94160199,-0.30991772,0.47958925,-0.82688403
1314273014.00197625,-0.30810589,0.48172149,-0.82799101
1314273014.05250931,-0.30793327,0.48309574,-0.82719499
1314273014.10152769,-0.30898017,0.47804776,-0.82496095
1314273014.15375209,-0.30856743,0.47944927,-0.82693869
1314273014.20159245,-0.30814639,0.47868764,-0.82677627
1314273014.25743890,-0.30904555,0.48132885,-0.82565266
1314273014.30148506,-0.31026879,0.47842735,-0.82384270
1314273014.35251379,-0.30759838,0.48006332,-0.82648981
1314273014.40150332,-0.30904564,0.48032314,-0.82577789
1314273014.45247364,-0.30892095,0.47868940,-0.82615685
1314273014.50147939,-0.30956432,0.47816318,-0.82340240
1314273014.55346036,-0.30719221,0.48018456,-0.82646751
1314273014.60171866,-0.31021565,0.47781301,-0.82529509
1314273014.65244865,-0.30758354,0.47918049,-0.82634968
1314273014.70449901,-0.30768442,0.47980395,-0.82569641
1314273014.75250149,-0.30711862,0.47991905,-0.82526684
1314273014.80448771,-0.30948576,0.47844839,-0.82658547
1314273014.85354733,-0.30702803,0.48171052,-0.82806218
1314273014.90175509,-0.30910990,0.47829959,-0.82483751
1314273014.95245337,-0.30845499,0.48030779,-0.82494771
1314273015.00160980,-0.30671400,0.47913617,-0.82311434
1314273015.05650949,-0.30709878,0.47941238,-0.82499647
1314273015.10459256,-0.30971605,0.47716206,-0.82380182
1314273015.15360475,-0.30697396,0.47979006,-0.82512486
1314273015.20155096,-0.30934045,0.48018062,-0.82393551
1314273015.25245047,-0.30809858,0.47968423,-0.82585186
1314273015.30197024,-0.30813301,0.47790641,-0.82438064
1314273015.35246778,-0.30829540,0.48030165,-0.82454044
1314273015.40160537,-0.30873996,0.47890621,-0.82309544
1314273015.45410848,-0.30864042,0.48057029,-0.82575661
1314273015.50160217,-0.30999029,0.47955433,-0.82356972
1314273015.55259085,-0.30878073,0.47903973,-0.82376236
1314273015.60449553,-0.30941874,0.47690257,-0.82338476
1314273015.65348482,-0.30646816,0.48258105,-0.82763851
1314273015.70149374,-0.30866393,0.47841322,-0.82414925
1314273015.75247455,-0.30996692,0.47969997,-0.82542765
1314273015.80160189,-0.30921474,0.47942668,-0.82418817
1314273015.85379505,-0.30904865,0.47969514,-0.82590616
1314273015.90451646,-0.30740458,0.47864339,-0.82341552
1314273015.95350027,-0.30892792,0.47856501,-0.82628906
1314273016.00461864,-0.30822796,0.47777444,-0.82372147
1314273016.05351710,-0.30805880,0.47967663,-0.82518589
1314273016.10149574,-0.31002527,0.47692099,-0.82448131
1314273016.15345716,-0.30903268,0.48069781,-0.82551450
1314273016.20162177,-0.30785802,0.47855559,-0.82649338
1314273016.25390792,-0.30935392,0.47995615,-0.82645637
1314273016.30160975,-0.30897263,0.47920215,-0.82695997
1314273016.35349846,-0.30705655,0.47917727,-0.82658505
1314273016.40275502,-0.31023887,0.47985330,-0.82770061
1314273016.45350742,-0.30776840,0.48047298,-0.82928979
1314273016.50180888,-0.30783269,0.47827491,-0.82383537
1314273016.55345201,-0.30853751,0.48070070,-0.82628262
1314273016.60162282,-0.31037617,0.47895074,-0.82557815
1314273016.65245485,-0.30878720,0.47893965,-0.82615107
1314273016.70460224,-0.30842331,0.47829029,-0.82466555
1314273016.75349593,-0.30829978,0.48196119,-0.82667661
1314273016.80190134,-0.30886126,0.47918084,-0.82509530
1314273016.85344744,-0.30872694,0.48046112,-0.82722074
1314273016.90169215,-0.30812040,0.48044270,-0.82612419
1314273016.95248818,-0.30746064,0.48081565,-0.82635480
1314273017.00147915,-0.30878472,0.47853762,-0.82389164
1314273017.05381417,-0.30801544,0.48132703,-0.82652295
1314273017.10048699,-0.30916157,0.47881234,-0.82564056
1314273017.15349984,-0.30700973,0.48029977,-0.82566160
1314273017.20053363,-0.30835959,0.47928381,-0.82347471
1314273017.25261593,-0.30765346,0.48210970,-0.82942808
1314273017.30050063,-0.30930132,0.47831181,-0.82577759
1314273017.35246992,-0.30870217,0.47932494,-0.82694542
1314273017.40153003,-0.30809063,0.47968271,-0.82571870
1314273017.45036364,-0.30850878,0.47906092,-0.82600337
1314273017.50151801,-0.30963698,0.47729707,-0.82472736
1314273017.55345750,-0.30700079,0.48017234,-0.82552743
1314273017.60460234,-0.30830252,0.47816586,-0.82492316
1314273017.65312123,-0.30784696,0.48018777,-0.82610673
1314273017.70446849,-0.30714151,0.47979772,-0.82566541
1314273017.75407887,-0.30742690,0.47955206,-0.82594532
1314273017.80159187,-0.30771977,0.47915772,-0.82410091
1314273017.85644507,-0.30762479,0.47928968,-0.82476014
1314273017.90160084,-0.30798221,0.48003912,-0.82385695
1314273017.95352483,-0.30681649,0.47802433,-0.82497007
1314273018.00151443,-0.30927786,0.47928864,-0.82299626
1314273018.05246377,-0.30693308,0.48184249,-0.82872140
1314273018.10453057,-0.30873716,0.47651708,-0.82334298
1314273018.15348458,-0.30672294,0.47926360,-0.82324851
1314273018.20160532,-0.30837545,0.48029256,-0.82361585
1314273018.25246811,-0.30749542,0.48102495,-0.82237655
1314273018.30210519,-0.30876642,0.47712687,-0.82149106
1314273018.36149740,-0.30811581,0.48180029,-0.82361221
1314273018.40459108,-0.30933061,0.47892159,-0.82392561
1314273018.45448470,-0.30810496,0.48041534,-0.82360131
1314273018.50447321,-0.30895469,0.47977850,-0.82205236
1314273018.55396891,-0.30720049,0.48217317,-0.82409370
1314273018.60554576,-0.30679753,0.47847477,-0.82006145
1314273018.65243983,-0.30920225,0.47977704,-0.82166827
1314273018.70561504,-0.30798268,0.48001483,-0.82160050
1314273018.75350022,-0.30922416,0.47952980,-0.82206589
1314273018.80253673,-0.31012946,0.47990930,-0.82132399
1314273018.85350704,-0.30820221,0.48370254,-0.82482576
1314273018.90147758,-0.30919233,0.47952372,-0.82153308
1314273018.95248508,-0.30731693,0.48063809,-0.82169986
1314273019.00162363,-0.31029412,0.47853351,-0.82198679
1314273019.05378461,-0.30608252,0.47999302,-0.82149196
1314273019.10552692,-0.30967078,0.47738045,-0.82074815
1314273019.15260291,-0.30699676,0.48049992,-0.82088423
1314273019.20451570,-0.30867723,0.48002565,-0.82190561
1314273019.25249171,-0.30636093,0.47987175,-0.82163966
1314273019.30447578,-0.31012166,0.47789636,-0.82144129
1314273019.35345316,-0.30751139,0.48002228,-0.82276821
1314273019.40161610,-0.30703950,0.48088524,-0.82155317
1314273019.45466852,-0.30855453,0.47864372,-0.82228655
1314273019.50450993,-0.30848604,0.47699633,-0.82134134
1314273019.55258369,-0.30690977,0.48063341,-0.82167661
1314273019.60166860,-0.30868793,0.47623184,-0.82028538
1314273019.65424752,-0.30623466,0.48014781,-0.82402354
1314273019.70453525,-0.30732587,0.48076549,-0.82183403
1314273019.75395584,-0.30857825,0.48065969,-0.82243562
1314273019.80450583,-0.30877227,0.47888801,-0.82137173
1314273019.85389638,-0.30886957,0.48116949,-0.82272142
1314273019.90093422,-0.30815110,0.48215979,-0.82189143
1314273019.95442891,-0.30815840,0.47700685,-0.82265002
1314273020.00191069,-0.30916762,0.47738183,-0.82138306
1314273020.05435824,-0.30880946,0.48067951,-0.82404166
1314273020.10149074,-0.30738410,0.47999793,-0.82063711
1314273020.15244269,-0.30731103,0.47988266,-0.82169390
1314273020.20051026,-0.30817208,0.48078093,-0.82241333
1314273020.25652409,-0.30832869,0.48040935,-0.82281768
1314273020.30063343,-0.30802909,0.47773641,-0.82039171
1314273020.35350013,-0.30827209,0.47926709,-0.82200962
1314273020.40448213,-0.30878663,0.47979516,-0.82376832
1314273020.45348763,-0.30762571,0.48042130,-0.82463580
1314273020.50146461,-0.31023958,0.47663736,-0.82130599
1314273020.55346560,-0.30795431,0.48053667,-0.82332820
1314273020.60447025,-0.30765259,0.47962335,-0.82064968
1314273020.65608048,-0.30758855,0.47862977,-0.82196593
1314273020.70551205,-0.30927092,0.47941303,-0.82286406
1314273020.75250101,-0.30680233,0.48129022,-0.82432985
1314273020.80460763,-0.30773616,0.47913647,-0.82211083
1314273020.85250163,-0.30950996,0.48044008,-0.82447797
1314273020.90446019,-0.30879655,0.48004848,-0.82390350
1314273020.95248151,-0.30738959,0.47977197,-0.82302481
1314273021.00547767,-0.30793101,0.47950208,-0.82079738
1314273021.05463719,-0.30796427,0.48078999,-0.82346332
1314273021.10548472,-0.30841881,0.47864217,-0.82227880
1314273021.15258360,-0.30841374,0.48002407,-0.82202333
1314273021.20283008,-0.30973729,0.47877604,-0.82169139
1314273021.25369883,-0.30791378,0.48457620,-0.82441765
1314273021.30550694,-0.30774552,0.48024529,-0.81986320
1314273021.35250783,-0.30897501,0.48043537,-0.82458019
1314273021.40459871,-0.30823928,0.47913510,-0.82147586
1314273021.45509601,-0.30834213,0.48001036,-0.82082462
1314273021.50560474,-0.30798718,0.47948843,-0.81947321
1314273021.55259275,-0.30849132,0.47978747,-0.82335323
1314273021.60281301,-0.30822149,0.47787452,-0.82133275
1314273021.65361142,-0.30843064,0.48015302,-0.82229066
1314273021.70148420,-0.30835560,0.47978592,-0.82334548
1314273021.75332522,-0.30810398,0.48028946,-0.82360035
1314273021.80160189,-0.30901980,0.47989225,-0.82086235
1314273021.85395598,-0.30907056,0.47927338,-0.82178974
1314273021.90458703,-0.30783007,0.47988433,-0.82132536
1314273021.95262337,-0.30715841,0.47975215,-0.82141882
1314273022.00447702,-0.30831534,0.47962809,-0.82042205
1314273022.05291128,-0.30625239,0.48241410,-0.82404137
1314273022.10447216,-0.30815488,0.47748464,-0.82026428
1314273022.15382457,-0.30924809,0.47852865,-0.82259071
1314273022.20162916,-0.30835706,0.47988752,-0.82108998
1314273022.25381041,-0.30815622,0.47977218,-0.82227218
1314273022.29250598,-0.30958122,0.47811761,-0.81915581
1314273022.35360980,-0.30924147,0.48064014,-0.81995147
1314273022.40169883,-0.30739993,0.48100668,-0.82077825
1314273022.45247793,-0.30842718,0.47962511,-0.82003021
1314273022.50551176,-0.30934849,0.47900191,-0.81967998
1314273022.55245709,-0.30843106,0.48113441,-0.81990892
1314273022.60448647,-0.30873990,0.47973740,-0.81845617
1314273022.65244842,-0.30939910,0.48039445,-0.82035685
1314273022.70163298,-0.30879262,0.47937036,-0.81938553
1314273022.75248647,-0.30866829,0.47989824,-0.82177144
1314273022.80303526,-0.30802351,0.47896811,-0.81787872
1314273022.85360980,-0.30760819,0.48215356,-0.82186043
1314273022.90153956,-0.30920276,0.47975275,-0.81941181
1314273022.95246983,-0.30700833,0.47884342,-0.81901443
1314273023.00060225,-0.30941853,0.47974521,-0.81849498
1314273023.05315709,-0.30739987,0.48201239,-0.82065296
1314273023.10660219,-0.30825716,0.47921544,-0.81723022
1314273023.15251541,-0.30735129,0.47986594,-0.82010341
1314273023.20049191,-0.30793896,0.47950360,-0.82093054
1314273023.25338864,-0.30756953,0.48026043,-0.82144600
1314273023.30147243,-0.30976263,0.47888222,-0.81983542
1314273023.35346913,-0.30739993,0.48100668,-0.82077825
1314273023.40150142,-0.30702710,0.48022988,-0.81915849
1314273023.45040131,-0.30815074,0.47999817,-0.81988448
1314273023.50055051,-0.30878079,0.47785950,-0.81937367
1314273023.55255485,-0.30813834,0.47951734,-0.82200384
1314273023.60151982,-0.30688110,0.47781339,-0.81700861
1314273023.65362668,-0.30718306,0.48289976,-0.82144356
1314273023.70151854,-0.30885887,0.47759861,-0.81844711
1314273023.75349069,-0.30829436,0.48100695,-0.81990016
1314273023.80560160,-0.30707729,0.48046651,-0.81770313
1314273023.85823369,-0.30895320,0.47950238,-0.81979388
1314273023.90160131,-0.30917501,0.47823885,-0.81913352
1314273023.95361042,-0.30880943,0.48050502,-0.81952769
1314273024.00448632,-0.30822986,0.47885746,-0.81908423
1314273024.05351210,-0.30841514,0.48113137,-0.81964254
1314273024.10152006,-0.30845857,0.47847527,-0.81843078
1314273024.15349126,-0.30722043,0.48149961,-0.81997532
1314273024.20160151,-0.30714497,0.47997659,-0.81889790
1314273024.25409603,-0.30736819,0.47999489,-0.82037073
1314273024.30151892,-0.30828109,0.47821429,-0.81775510
1314273024.35259247,-0.30772665,0.47986454,-0.81959385
1314273024.40433812,-0.30732405,0.47832775,-0.81756860
1314273024.45360327,-0.30615735,0.48337725,-0.82006133
1314273024.50548458,-0.30801654,0.47909251,-0.81774652
1314273024.55246973,-0.30684265,0.48009330,-0.81835061
1314273024.60559964,-0.30854446,0.48022729,-0.81738687
1314273024.65243649,-0.30740452,0.47947457,-0.81877625
1314273024.70560908,-0.30641767,0.47882807,-0.81818426
1314273024.75346708,-0.30804232,0.48035458,-0.81802279
1314273024.80190969,-0.30771926,0.47883302,-0.81732947
1314273024.85260177,-0.30719361,0.48111734,-0.81957275
1314273024.90588379,-0.30721712,0.47896028,-0.81796539
1314273024.95243835,-0.30679551,0.47922868,-0.81993425
1314273025.00559020,-0.30758354,0.47883144,-0.81732172
1314273025.05385137,-0.30622315,0.48044956,-0.81699067
1314273025.10449004,-0.30913666,0.47933856,-0.81608677
1314273025.15260100,-0.30655333,0.47983533,-0.81806678
1314273025.20448399,-0.30740401,0.47932437,-0.81651878
1314273025.25246763,-0.30680129,0.48199552,-0.81968963
1314273025.30585790,-0.30915961,0.47821149,-0.81661063
1314273025.35245323,-0.30752927,0.48010263,-0.81852257
1314273025.40547585,-0.30860424,0.47873014,-0.81857371
1314273025.45370197,-0.30768588,0.47973102,-0.81892693
1314273025.50547838,-0.30744648,0.47654235,-0.81530601
1314273025.55245638,-0.30789161,0.48148158,-0.81762439
1314273025.60448527,-0.30872595,0.47998619,-0.81819177
1314273025.65345883,-0.30735868,0.48072296,-0.81785381
1314273025.70146728,-0.30664134,0.47982776,-0.81727535
1314273025.75247931,-0.30866373,0.48125583,-0.81925946
1314273025.80445862,-0.30863950,0.47908965,-0.81685293
1314273025.85357261,-0.30638078,0.48020390,-0.81739599
1314273025.90461397,-0.30774495,0.48110080,-0.81748044
1314273025.95260429,-0.30940768,0.47836027,-0.81848407
1314273026.00225735,-0.30892193,0.47846627,-0.81712991
1314273026.05346775,-0.30722436,0.48200324,-0.81997925
1314273026.10148668,-0.30841774,0.47934747,-0.81763858
1314273026.15357590,-0.30922520,0.47847548,-0.81767815
1314273026.20157409,-0.30729258,0.48048329,-0.81904280
1314273026.25543928,-0.30825758,0.48037136,-0.81936246
1314273026.30047345,-0.30929130,0.47871515,-0.81648916
1314273026.35250115,-0.30856875,0.48138779,-0.81991863
1314273026.40155530,-0.30841628,0.47924587,-0.81989408
1314273026.45357609,-0.30749604,0.47898921,-0.82037055
1314273026.50148869,-0.30904076,0.47833890,-0.81687027
1314273026.55345917,-0.30830976,0.48103431,-0.82242304
1314273026.60160232,-0.30713913,0.47821549,-0.81901723
1314273026.65244555,-0.30727765,0.48060617,-0.81877738
1314273026.70150232,-0.30861872,0.47762588,-0.82122087
1314273026.75245833,-0.30590102,0.48023412,-0.82068700
1314273026.80461574,-0.30856502,0.47786704,-0.82029051
1314273026.85253477,-0.30759558,0.48468986,-0.82360399
1314273026.90631938,-0.30688941,0.47997653,-0.81914878
1314273026.95346928,-0.30800909,0.47924119,-0.81987083
1314273027.00457883,-0.30801705,0.47924271,-0.82000399
1314273027.05415154,-0.30812335,0.48064590,-0.82161319
1314273027.10560155,-0.30809018,0.47835228,-0.81907248
1314273027.15262914,-0.30797482,0.47900760,-0.82159257
1314273027.20160937,-0.30754855,0.48163930,-0.82092416
1314273027.25360703,-0.30608842,0.48074841,-0.82149786
1314273027.30151677,-0.30989555,0.47649464,-0.82009077
1314273027.35245585,-0.30708626,0.48076847,-0.82235128
1314273027.40560198,-0.30882648,0.47862253,-0.82004559
1314273027.45613456,-0.30804732,0.48015290,-0.82266700
1314273027.50561261,-0.30849189,0.47875744,-0.82122201
1314273027.55262852,-0.30704555,0.47962925,-0.82180965
1314273027.60216212,-0.30895424,0.47862259,-0.81992012
1314273027.65248132,-0.30811983,0.48129821,-0.82374144
1314273027.70603848,-0.30583936,0.48047376,-0.81962347
1314273027.75243926,-0.30729610,0.48000550,-0.82142854
1314273027.80469394,-0.30907744,0.48015472,-0.82179672
1314273027.85349059,-0.30713806,0.47926980,-0.82340497
1314273027.90458727,-0.30713150,0.48037559,-0.82089096
1314273027.94459224,-0.30913413,0.48029128,-0.82273000
1314273028.00146556,-0.30872589,0.48116639,-0.82258052
1314273028.05270290,-0.30587253,0.48276737,-0.82216418
1314273028.10590291,-0.30884141,0.47849968,-0.82031095
1314273028.15346813,-0.30734679,0.48039234,-0.82223064
1314273028.20162225,-0.30736974,0.47926530,-0.82275450
1314273028.25374222,-0.30720204,0.48126906,-0.82196343
1314273028.30458903,-0.30794904,0.47774550,-0.82131630
1314273028.35248137,-0.30595762,0.48137638,-0.82149506
1314273028.40187049,-0.30900192,0.47963741,-0.82059401
1314273028.45253539,-0.30565378,0.48239720,-0.82307804
1314273028.50446868,-0.30811059,0.47800344,-0.82172561
1314273028.55249119,-0.30767652,0.47862220,-0.82117450
1314273028.60448551,-0.30937931,0.47888210,-0.82021177
1314273028.65246153,-0.30770034,0.47963247,-0.82144880
1314273028.70160723,-0.30801508,0.47899088,-0.82000202
1314273028.75260425,-0.30914453,0.48052031,-0.82060868
1314273028.80451846,-0.30863205,0.47923833,-0.81897724
1314273028.85349917,-0.30692425,0.47935462,-0.81980979
1314273028.90447140,-0.30756700,0.48086414,-0.81906128
1314273028.94449472,-0.30816567,0.47987530,-0.82014990
1314273029.00159073,-0.30655462,0.48312858,-0.81994939
1314273029.05349088,-0.30642149,0.48134312,-0.81793767
1314273029.10049272,-0.30774361,0.47881326,-0.81547254
1314273029.15359092,-0.30752975,0.48007831,-0.81626606
1314273029.20079613,-0.30716038,0.47982943,-0.81690681
1314273029.25359082,-0.30703548,0.48138735,-0.82142389
1314273029.30051208,-0.30702865,0.47932580,-0.81702828
1314273029.35350966,-0.30877474,0.47911552,-0.81911719
1314273029.40558767,-0.30822283,0.47998756,-0.81882674
1314273029.45032668,-0.30744675,0.47970968,-0.81718767
1314273029.50246668,-0.30846217,0.47681725,-0.81642783
1314273029.55351567,-0.30704901,0.47998264,-0.81955612
1314273029.60202050,-0.30795890,0.47883004,-0.81681222
1314273029.65352988,-0.30805838,0.47834620,-0.81853974
1314273029.70148849,-0.30834559,0.48036379,-0.81857109
1314273029.75244308,-0.30910173,0.48114070,-0.81981450
1314273029.80155826,-0.30764773,0.47781360,-0.81625599
1314273029.85650992,-0.30592835,0.48059210,-0.81883305
1314273029.90550160,-0.30766907,0.47859639,-0.81878483
1314273029.94560242,-0.30697045,0.48009333,-0.81822520
1314273030.00450683,-0.30909279,0.48101327,-0.81968033
1314273030.05361009,-0.30791885,0.48301980,-0.82015914
1314273030.10446692,-0.30739310,0.47894514,-0.81638259
1314273030.15349388,-0.30871356,0.47950536,-0.82031113
1314273030.20146728,-0.30715391,0.48010403,-0.81903207
1314273030.25459242,-0.30840930,0.47937024,-0.81976187
1314273030.30161428,-0.30874798,0.47772750,-0.81883991
1314273030.35345721,-0.30574840,0.48010361,-0.82041192
1314273030.40150452,-0.30714503,0.47897089,-0.81902319
1314273030.45345783,-0.30754665,0.48038179,-0.82104743
1314273030.50447750,-0.30980241,0.47888982,-0.82050139
1314273030.55249858,-0.30704859,0.47900125,-0.82193786
1314273030.60549831,-0.30770785,0.47847807,-0.81944978
1314273030.65244389,-0.30742183,0.48075944,-0.82117581
1314273030.70447016,-0.30706483,0.48099139,-0.81969720
1314273030.75361037,-0.30552861,0.48061326,-0.82119948
1314273030.80450153,-0.30879071,0.47811285,-0.81950885
1314273030.85259366,-0.30571553,0.48115185,-0.82426685
1314273030.90446663,-0.30788323,0.48049867,-0.81987298
1314273030.94163299,-0.30912223,0.47978613,-0.82259285
1314273031.00566983,-0.30763063,0.48087630,-0.82012683
1314273031.05245066,-0.30777735,0.48025137,-0.82039601
1314273031.10160923,-0.30840296,0.47745889,-0.81762373
1314273031.15360832,-0.30776551,0.47874054,-0.82038409
1314273031.20194101,-0.30676663,0.47960031,-0.81940442
1314273031.25361109,-0.30786231,0.48087180,-0.81947637
1314273031.30579257,-0.30888969,0.47747880,-0.81897891
1314273031.35246921,-0.30762866,0.48062450,-0.82012480
1314273031.40160894,-0.30758402,0.47898164,-0.81957918
1314273031.45376468,-0.30899093,0.48026389,-0.82033259
1314273031.50559640,-0.30748364,0.47833389,-0.81797594
1314273031.55251288,-0.30911878,0.47925821,-0.82033241
1314273031.60458755,-0.30789581,0.47796237,-0.81812942
1314273031.65345764,-0.30931202,0.48153365,-0.82102394
1314273031.70145965,-0.30891046,0.47911707,-0.81912494
1314273031.75247169,-0.30624852,0.48073024,-0.81964868
